Location: Waco, TX
(31.5480°N, 97.1670°W)
Time: 20:27:44
(UTC-05:00)

ISS - Pass Details

Date: 12 August 2018
Orbit: 402 x 409 km, 51.6° (Epoch: 15 August)

Event Time Altitude Azimuth Distance (km) Brightness Sun altitude
Rises 12:33:52 0° 230° (SW) 2,299 0.0 68.4°
Reaches altitude 10° 12:35:57 10° 234° (SW) 1,443 -0.9 68.7°
Maximum altitude 12:39:09 63° 316° (NW) 449 -2.8 69.1°
Drops below altitude 10° 12:42:23 10° 39° (NE) 1,450 -0.9 69.6°
Sets 12:44:28 0° 42° (NE) 2,312 0.0 69.8°
